Weather History for Orange, VA

Change the Weather History Date:

Sunday, November 24, 2013

  Actual Average Record
Temperature  
Mean Temperature 29 °F -  
Max Temperature 37 °F 54 °F 75 °F (1958)
Min Temperature 21 °F 32 °F 9 °F (1956)
Degree Days  
Heating Degree Days 36    
Moisture  
Dew Point 9 °F    
Average Humidity 43    
Maximum Humidity 80    
Minimum Humidity 28    
Precipitation  
Precipitation 0.00 in - - ()
Sea Level Pressure  
Sea Level Pressure 30.43 in    
Wind  
Wind Speed 10 mph (WNW)    
Max Wind Speed 17 mph    
Max Gust Speed 28 mph    
Visibility 10 miles    
Events      
Averages and records for this station are not official NWS values.
T = Trace of Precipitation, MM = Missing Value Source: NWS Daily Summary

Daily Weather History Graph

Daily Weather History Graph

Search for Another Location

Airport:

Trip Planner

Search our weather history database for the weather conditions in past years. The results will help you decide how hot, cold, wet, or windy it might be!

Date:

Astronomy

Nov. 24, 2013 Rise Set
Actual Time 7:03 AM EST 4:54 PM EST
Civil Twilight 6:34 AM EST 5:23 PM EST
Nautical Twilight 6:02 AM EST 5:55 PM EST
Astronomical Twilight 5:30 AM EST 6:27 PM EST
Moon 11:15 PM EST (11/24) 11:52 AM EST (11/24)
Length of Visible Light 10h 48m
Length of Day
9h 51m
Waning Gibbous, 61% of the Moon is Illuminated
Nov 24
Waning Gibbous
Nov 25
Last Quarter
Dec 2
New
Dec 9
First Quarter
Dec 17
Full

Hourly Weather History & Observations

Time (EST) Temp. Windchill Dew Point Humidity Pressure Visibility Wind Dir Wind Speed Gust Speed Precip Events Conditions
12:15 AM 37.4 °F 29.8 °F 21.2 °F 52% 30.23 in 10.0 mi WNW 11.5 mph - N/A   Mostly Cloudy
12:35 AM 35.6 °F 28.6 °F 21.2 °F 56% 30.24 in 10.0 mi WNW 9.2 mph 16.1 mph N/A   Scattered Clouds
12:55 AM 35.6 °F 28.6 °F 19.4 °F 52% 30.25 in 10.0 mi West 9.2 mph 19.6 mph N/A   Scattered Clouds
1:15 AM 33.8 °F 23.9 °F 17.6 °F 52% 30.26 in 10.0 mi WNW 15.0 mph 20.7 mph N/A   Scattered Clouds
1:35 AM 33.8 °F 23.9 °F 12.2 °F 41% 30.27 in 10.0 mi West 15.0 mph 23.0 mph N/A   Scattered Clouds
1:55 AM 33.8 °F 23.2 °F 8.6 °F 35% 30.28 in 10.0 mi West 17.3 mph 25.3 mph N/A   Clear
2:15 AM 32.0 °F 21.6 °F 8.6 °F 38% 30.29 in 10.0 mi West 15.0 mph 25.3 mph N/A   Clear
2:35 AM 32.0 °F 21.2 °F 8.6 °F 38% 30.29 in 10.0 mi WNW 16.1 mph 27.6 mph N/A   Clear
2:55 AM 32.0 °F 22.5 °F 8.6 °F 38% 30.30 in 10.0 mi West 12.7 mph 23.0 mph N/A   Clear
3:15 AM 32.0 °F 22.1 °F 8.6 °F 38% 30.30 in 10.0 mi West 13.8 mph 20.7 mph N/A   Clear
3:35 AM 32.0 °F 23.6 °F 8.6 °F 38% 30.30 in 10.0 mi West 10.4 mph - N/A   Clear
3:55 AM 32.0 °F 23.6 °F 10.4 °F 41% 30.31 in 10.0 mi West 10.4 mph - N/A   Scattered Clouds
4:15 AM 32.0 °F 27.5 °F 10.4 °F 41% 30.32 in 10.0 mi WNW 4.6 mph - N/A   Mostly Cloudy
4:35 AM 32.0 °F 25.6 °F 14.0 °F 48% 30.33 in 10.0 mi WSW 6.9 mph 18.4 mph N/A   Mostly Cloudy
4:55 AM 30.2 °F 19.3 °F 10.4 °F 44% 30.34 in 10.0 mi WNW 15.0 mph 23.0 mph N/A   Clear
5:15 AM 30.2 °F 23.4 °F 10.4 °F 44% 30.34 in 10.0 mi WSW 6.9 mph 16.1 mph N/A   Clear
5:35 AM 30.2 °F 23.4 °F 10.4 °F 44% 30.35 in 10.0 mi West 6.9 mph 17.3 mph N/A   Scattered Clouds
5:55 AM 30.2 °F - 10.4 °F 44% 30.36 in 10.0 mi Calm Calm - N/A   Scattered Clouds
6:15 AM 30.2 °F 22.6 °F 10.4 °F 44% 30.36 in 10.0 mi West 8.1 mph - N/A   Clear
6:35 AM 30.2 °F 26.7 °F 10.4 °F 44% 30.36 in 10.0 mi West 3.5 mph - N/A   Clear
6:55 AM 30.2 °F 22.6 °F 8.6 °F 40% 30.37 in 10.0 mi NW 8.1 mph - N/A   Clear
7:15 AM 30.2 °F 26.7 °F 8.6 °F 40% 30.39 in 10.0 mi NW 3.5 mph - N/A   Clear
7:35 AM 28.4 °F 23.3 °F 12.2 °F 51% 30.40 in 10.0 mi NNW 4.6 mph - N/A   Scattered Clouds
7:55 AM 30.2 °F 24.3 °F 10.4 °F 44% 30.42 in 10.0 mi NW 5.8 mph - N/A   Scattered Clouds
8:15 AM 30.2 °F 22.6 °F 10.4 °F 44% 30.42 in 10.0 mi West 8.1 mph - N/A   Scattered Clouds
8:35 AM 30.2 °F 18.9 °F 8.6 °F 40% 30.44 in 10.0 mi NW 16.1 mph 23.0 mph N/A   Scattered Clouds
8:55 AM 32.0 °F 23.0 °F 8.6 °F 38% 30.44 in 10.0 mi NW 11.5 mph 17.3 mph N/A   Scattered Clouds
9:15 AM 32.0 °F 22.5 °F 8.6 °F 38% 30.45 in 10.0 mi WNW 12.7 mph 20.7 mph N/A   Scattered Clouds
9:35 AM 32.0 °F 23.6 °F 6.8 °F 35% 30.45 in 10.0 mi WNW 10.4 mph 16.1 mph N/A   Scattered Clouds
9:55 AM 32.0 °F 22.1 °F 6.8 °F 35% 30.46 in 10.0 mi West 13.8 mph 18.4 mph N/A   Scattered Clouds
10:15 AM 32.0 °F 22.5 °F 5.0 °F 32% 30.47 in 10.0 mi NW 12.7 mph 16.1 mph N/A   Scattered Clouds
10:35 AM 32.0 °F 23.6 °F 5.0 °F 32% 30.47 in 10.0 mi NNW 10.4 mph 25.3 mph N/A   Scattered Clouds
10:55 AM 32.0 °F 23.0 °F 5.0 °F 32% 30.47 in 10.0 mi WNW 11.5 mph 19.6 mph N/A   Scattered Clouds
11:15 AM 33.8 °F 25.8 °F 5.0 °F 30% 30.46 in 10.0 mi NW 10.4 mph 16.1 mph N/A   Scattered Clouds
11:35 AM 33.8 °F 24.3 °F 5.0 °F 30% 30.46 in 10.0 mi WNW 13.8 mph 23.0 mph N/A   Clear
11:55 AM 33.8 °F 25.8 °F 5.0 °F 30% 30.46 in 10.0 mi WNW 10.4 mph 16.1 mph N/A   Clear
12:15 PM 33.8 °F 25.8 °F 5.0 °F 30% 30.45 in 10.0 mi West 10.4 mph 17.3 mph N/A   Clear
12:35 PM 33.8 °F 24.3 °F 5.0 °F 30% 30.44 in 10.0 mi West 13.8 mph 21.9 mph N/A   Clear
12:55 PM 33.8 °F 24.8 °F 5.0 °F 30% 30.44 in 10.0 mi West 12.7 mph 18.4 mph N/A   Clear
1:15 PM 35.6 °F 27.1 °F 6.8 °F 30% 30.44 in 10.0 mi West 12.7 mph 19.6 mph N/A   Scattered Clouds
1:35 PM 35.6 °F 26.6 °F 5.0 °F 28% 30.43 in 10.0 mi West 13.8 mph 20.7 mph N/A   Clear
1:55 PM 35.6 °F 27.1 °F 5.0 °F 28% 30.43 in 10.0 mi West 12.7 mph 20.7 mph N/A   Clear
2:15 PM 35.6 °F 28.6 °F 5.0 °F 28% 30.42 in 10.0 mi WNW 9.2 mph 17.3 mph N/A   Clear
2:35 PM 35.6 °F 27.5 °F 5.0 °F 28% 30.43 in 10.0 mi NW 11.5 mph 19.6 mph N/A   Clear
2:55 PM 35.6 °F 31.7 °F 5.0 °F 28% 30.43 in 10.0 mi WNW 4.6 mph - N/A   Clear
3:15 PM 33.8 °F 24.3 °F 5.0 °F 30% 30.44 in 10.0 mi NW 13.8 mph 20.7 mph N/A   Clear
3:35 PM 33.8 °F 24.8 °F 5.0 °F 30% 30.45 in 10.0 mi West 12.7 mph 16.1 mph N/A   Clear
3:55 PM 33.8 °F 24.8 °F 5.0 °F 30% 30.45 in 10.0 mi WNW 12.7 mph - N/A   Clear
4:15 PM 33.8 °F 27.0 °F 5.0 °F 30% 30.45 in 10.0 mi West 8.1 mph - N/A   Clear
4:35 PM 32.0 °F 23.0 °F 5.0 °F 32% 30.47 in 10.0 mi West 11.5 mph - N/A   Clear
4:55 PM 32.0 °F 23.6 °F 5.0 °F 32% 30.47 in 10.0 mi West 10.4 mph - N/A   Clear
5:15 PM 32.0 °F 24.2 °F 5.0 °F 32% 30.48 in 10.0 mi West 9.2 mph 16.1 mph N/A   Clear
5:35 PM 32.0 °F 25.6 °F 6.8 °F 35% 30.49 in 10.0 mi NW 6.9 mph - N/A   Clear
5:55 PM 32.0 °F 27.5 °F 6.8 °F 35% 30.49 in 10.0 mi NW 4.6 mph - N/A   Clear
6:15 PM 32.0 °F 25.6 °F 6.8 °F 35% 30.50 in 10.0 mi West 6.9 mph - N/A   Clear
6:35 PM 30.2 °F 24.3 °F 6.8 °F 37% 30.51 in 10.0 mi West 5.8 mph - N/A   Clear
6:55 PM 30.2 °F 26.7 °F 8.6 °F 40% 30.52 in 10.0 mi West 3.5 mph - N/A   Clear
7:15 PM 30.2 °F 25.4 °F 8.6 °F 40% 30.52 in 10.0 mi WNW 4.6 mph - N/A   Clear
7:35 PM 30.2 °F - 8.6 °F 40% 30.52 in 10.0 mi Calm Calm - N/A   Clear
7:55 PM 26.6 °F 20.0 °F 12.2 °F 55% 30.52 in 10.0 mi WNW 5.8 mph - N/A   Clear
8:15 PM 26.6 °F - 12.2 °F 55% 30.53 in 10.0 mi Calm Calm - N/A   Clear
8:35 PM 26.6 °F - 12.2 °F 55% 30.54 in 10.0 mi Calm Calm - N/A   Clear
8:55 PM 24.8 °F - 14.0 °F 64% 30.54 in 10.0 mi Calm Calm - N/A   Clear
9:15 PM 24.8 °F - 14.0 °F 64% 30.53 in 10.0 mi Calm Calm - N/A   Clear
9:35 PM 23.0 °F - 15.8 °F 74% 30.53 in 10.0 mi Calm Calm - N/A   Clear
9:55 PM 23.0 °F 15.8 °F 14.0 °F 68% 30.53 in 10.0 mi WNW 5.8 mph - N/A   Clear
10:15 PM 23.0 °F - 15.8 °F 74% 30.54 in 10.0 mi Calm Calm - N/A   Clear
10:35 PM 21.2 °F - 15.8 °F 80% 30.54 in 10.0 mi Calm Calm - N/A   Clear
10:55 PM 23.0 °F - 15.8 °F 74% 30.54 in 10.0 mi Calm Calm - N/A   Clear
11:15 PM 23.0 °F - 15.8 °F 74% 30.54 in 10.0 mi Calm Calm - N/A   Clear
11:35 PM 21.2 °F 16.4 °F 15.8 °F 80% 30.55 in 10.0 mi East 3.5 mph - N/A   Clear
11:55 PM 21.2 °F - 15.8 °F 80% 30.55 in 10.0 mi Calm Calm - N/A   Clear